Location: *
(51.5000°N, 0.1100°W)
Time: 01:03:55
(UTC+00:00)

MSX - Pass Details

Date: 13 August 2024
Orbit: 895 x 904 km, 99.0° (Epoch: 09 September)

Event Time Altitude Azimuth Distance (km) Brightness Sun altitude
Rises 03:51:19 0° 8° (N) 3,545 7.7 -7.8°
Reaches altitude 10° 03:54:20 10° 353° (N) 2,600 6.6 -7.5°
Maximum altitude 03:58:24 20° 308° (NW) 1,957 5.4 -6.9°
Drops below altitude 10° 04:02:28 10° 263° (W) 2,588 5.7 -6.4°
Enters shadow 04:03:42 - 255° (WSW) 2,948 5.9 -6.2°
